Weather History for Palacios, TX

Change the Weather History Date:

Sunday, February 24, 2013

  Actual Average Record
Temperature  
Mean Temperature 57 °F -  
Max Temperature 70 °F 68 °F 82 °F (1943)
Min Temperature 44 °F 48 °F 27 °F (1965)
Degree Days  
Heating Degree Days 8    
Growing Degree Days 7 (Base 50)    
Moisture  
Dew Point 52 °F    
Average Humidity 88    
Maximum Humidity 100    
Minimum Humidity 63    
Precipitation  
Precipitation 0.00 in - - ()
Sea Level Pressure  
Sea Level Pressure 29.81 in    
Wind  
Wind Speed 7 mph (ENE)    
Max Wind Speed 17 mph    
Max Gust Speed 23 mph    
Visibility 6 miles    
Events Fog    
Averages and records for this station are not official NWS values.
T = Trace of Precipitation, MM = Missing Value Source: NWS Daily Summary

Daily Weather History Graph

Daily Weather History Graph

Search for Another Location

Airport:

Trip Planner

Search our weather history database for the weather conditions in past years. The results will help you decide how hot, cold, wet, or windy it might be!

Date:

Astronomy

Feb. 24, 2013 Rise Set
Actual Time 6:54 AM CST 6:21 PM CST
Civil Twilight 6:31 AM CST 6:45 PM CST
Nautical Twilight 6:03 AM CST 7:13 PM CST
Astronomical Twilight 5:36 AM CST 7:40 PM CST
Moon 5:33 PM CST (2/24) 5:50 AM CST (2/24)
Length of Visible Light 12h 14m
Length of Day
11h 26m
Waxing Gibbous, 99% of the Moon is Illuminated
Feb 24
Waxing Gibbous
Feb 25
Full
Mar 4
Last Quarter
Mar 11
New
Mar 19
First Quarter

Hourly Weather History & Observations

Time (CST) Temp. Windchill Dew Point Humidity Pressure Visibility Wind Dir Wind Speed Gust Speed Precip Events Conditions
12:53 AM 48.0 °F - 46.0 °F 93% 29.92 in 0.2 mi East 5.8 mph - N/A Fog Fog
1:53 AM 48.9 °F - 46.9 °F 93% 29.91 in 0.2 mi Calm Calm - N/A Fog Fog
2:53 AM 46.9 °F - 45.0 °F 93% 29.88 in 0.2 mi NNE 5.8 mph - N/A Fog Fog
3:39 AM 46.4 °F 45.2 °F 46.4 °F 100% 29.87 in 1.2 mi NE 3.5 mph - N/A   Scattered Clouds
3:49 AM 48.2 °F - 46.4 °F 93% 29.87 in 0.8 mi NE 3.5 mph - N/A   Mist
3:53 AM 46.9 °F - 46.0 °F 97% 29.88 in 0.5 mi NE 4.6 mph - N/A Fog Fog
4:15 AM 46.4 °F 44.3 °F 44.6 °F 93% 29.87 in 1.2 mi NE 4.6 mph - N/A   Partly Cloudy
4:42 AM 46.4 °F - 44.6 °F 93% 29.87 in 3.0 mi Calm Calm - N/A   Clear
4:53 AM 46.0 °F 44.8 °F 44.1 °F 93% 29.88 in 8.0 mi NE 3.5 mph - N/A   Partly Cloudy
4:57 AM 46.4 °F 45.2 °F 44.6 °F 93% 29.88 in 1.5 mi NE 3.5 mph - N/A   Scattered Clouds
5:00 AM 46.4 °F 45.2 °F 44.6 °F 93% 29.87 in 0.8 mi NE 3.5 mph - N/A   Mist
5:13 AM 44.6 °F 42.2 °F 42.8 °F 93% 29.88 in 0.8 mi NE 4.6 mph - N/A   Mist
5:26 AM 44.6 °F 41.4 °F 42.8 °F 93% 29.87 in 0.8 mi NE 5.8 mph - N/A   Mist
5:36 AM 44.6 °F 41.4 °F 42.8 °F 93% 29.87 in 1.0 mi NE 5.8 mph - N/A   Mist
5:50 AM 44.6 °F 40.7 °F 42.8 °F 93% 29.87 in 3.0 mi NNE 6.9 mph - N/A   Mostly Cloudy
5:53 AM 44.1 °F 39.5 °F 42.1 °F 93% 29.87 in 4.0 mi NNE 8.1 mph - N/A   Mostly Cloudy
6:01 AM 44.6 °F 40.2 °F 42.8 °F 93% 29.87 in 1.8 mi NNE 8.1 mph - N/A   Mostly Cloudy
6:08 AM 46.4 °F 42.4 °F 44.6 °F 93% 29.87 in 2.0 mi NNE 8.1 mph - N/A   Scattered Clouds
6:16 AM 46.4 °F 42.9 °F 44.6 °F 93% 29.88 in 4.0 mi NE 6.9 mph - N/A   Partly Cloudy
6:53 AM 48.0 °F - 46.0 °F 93% 29.88 in 4.0 mi ENE 6.9 mph - N/A   Clear
7:03 AM 48.2 °F - 46.4 °F 93% 29.88 in 2.5 mi ENE 6.9 mph - N/A   Clear
7:10 AM 48.2 °F - 46.4 °F 93% 29.88 in 2.5 mi ENE 5.8 mph - N/A   Scattered Clouds
7:15 AM 48.2 °F - 46.4 °F 93% 29.88 in 1.8 mi ENE 5.8 mph - N/A   Mostly Cloudy
7:24 AM 48.2 °F - 46.4 °F 93% 29.88 in 0.2 mi ENE 5.8 mph - N/A Fog Fog
7:53 AM 52.0 °F - 50.0 °F 93% 29.88 in 0.2 mi NE 5.8 mph - N/A Fog Fog
8:02 AM 51.8 °F - 51.8 °F 100% 29.88 in 2.0 mi NE 5.8 mph - N/A   Overcast
8:19 AM 55.4 °F - 53.6 °F 94% 29.89 in 2.5 mi ENE 5.8 mph - N/A   Scattered Clouds
8:30 AM 57.2 °F - 55.4 °F 94% 29.89 in 3.0 mi ENE 4.6 mph - N/A   Clear
8:53 AM 62.1 °F - 57.9 °F 86% 29.90 in 10.0 mi East 11.5 mph - N/A   Clear
9:53 AM 66.0 °F - 59.0 °F 78% 29.90 in 10.0 mi East 13.8 mph - N/A   Clear
10:53 AM 69.1 °F - 57.9 °F 68% 29.87 in 10.0 mi East 16.1 mph - N/A   Clear
11:53 AM 70.0 °F - 57.0 °F 63% 29.86 in 10.0 mi ESE 17.3 mph - N/A   Scattered Clouds
12:53 PM 69.1 °F - 57.9 °F 68% 29.82 in 10.0 mi East 17.3 mph 23.0 mph N/A   Overcast
1:53 PM 66.9 °F - 57.9 °F 73% 29.79 in 10.0 mi East 16.1 mph - N/A   Overcast
2:40 PM 66.2 °F - 57.2 °F 73% 29.76 in 10.0 mi East 16.1 mph - N/A   Overcast
2:53 PM 66.9 °F - 57.9 °F 73% 29.76 in 10.0 mi East 16.1 mph 23.0 mph N/A   Overcast
3:35 PM 66.2 °F - 57.2 °F 73% 29.73 in 10.0 mi East 15.0 mph - N/A   Overcast
3:53 PM 66.9 °F - 59.0 °F 76% 29.73 in 10.0 mi East 16.1 mph - N/A   Overcast
4:53 PM 64.9 °F - 59.0 °F 81% 29.73 in 9.0 mi East 17.3 mph - N/A   Overcast
5:53 PM 64.0 °F - 59.0 °F 84% 29.72 in 10.0 mi East 17.3 mph - N/A   Overcast
6:39 PM 64.4 °F - 59.0 °F 83% 29.72 in 10.0 mi East 13.8 mph - N/A   Overcast
6:53 PM 64.0 °F - 59.0 °F 84% 29.70 in 10.0 mi East 15.0 mph - N/A   Overcast
7:16 PM 62.6 °F - 57.2 °F 82% 29.71 in 10.0 mi East 12.7 mph - N/A   Scattered Clouds
7:53 PM 63.0 °F - 59.0 °F 87% 29.70 in 10.0 mi East 13.8 mph - N/A   Overcast
8:33 PM 62.6 °F - 59.0 °F 88% 29.70 in 10.0 mi East 11.5 mph - N/A   Overcast
8:53 PM 63.0 °F - 59.0 °F 87% 29.70 in 10.0 mi East 11.5 mph - N/A   Mostly Cloudy
9:37 PM 64.4 °F - 59.0 °F 83% 29.70 in 10.0 mi ENE 8.1 mph - N/A   Overcast
9:53 PM 64.0 °F - 59.0 °F 84% 29.71 in 10.0 mi ENE 8.1 mph - N/A   Overcast
10:38 PM 64.4 °F - 60.8 °F 88% 29.69 in 10.0 mi East 11.5 mph - N/A   Overcast
10:53 PM 64.0 °F - 60.1 °F 87% 29.68 in 10.0 mi East 12.7 mph - N/A   Overcast
11:00 PM 64.4 °F - 60.8 °F 88% 29.68 in 10.0 mi East 12.7 mph - N/A   Overcast
11:10 PM 64.4 °F - 60.8 °F 88% 29.66 in 9.0 mi East 11.5 mph - N/A   Overcast
11:53 PM 64.0 °F - 61.0 °F 90% 29.65 in 6.0 mi East 11.5 mph - N/A   Overcast